Wind_Speed
9 11 8 6 10 8 4 6 4 6 11 9 11 12 18 25 32 34 35 38 38 37 38 38 36 30 23 21 11 15 18 19 21 14 15 14 16 20 24 26 30 33 32 35
5 6 10 12 14 13 12 9 11 10 11 4 9 12 18 20 22 26 29 32 33 36 36 36 36 38 34 25 21 17 8 9 9 17 20 19 16 20 18 22 26 32 30 24
4 4 8 10 9 12 5 6 5 5 2 6 5 9 13 16 18 20 23 24 28 31 33 34 34 35 41 37 26 24 19 11 6 12 16 16 14 17 19 21 24 22 29 28
5 8 3 2 2 1 8 8 12 9 9 3 2 3 7 9 12 16 19 22 23 24 25 27 29 33 33 38 39 38 27 20 19 14 10 14 9 16 23 26 21 14 24 21
3 4 11 3 5 6 6 4 9 13 8 5 5 4 2 5 7 11 14 16 19 21 23 25 26 28 31 34 35 36 35 35 37 39 40 37 34 27 29 24 25 23 22 20
2 3 4 3 2 3 4 6 9 10 7 6 7 4 3 1 4 8 11 14 16 18 19 20 22 23 26 29 31 31 30 30 31 32 34 34 32 29 29 27 26 24 23 19
8 5 8 4 6 5 3 2 13 13 11 9 6 2 8 5 2 4 6 9 12 13 16 17 18 20 22 23 26 23 21 22 24 26 27 27 25 24 23 22 20 19 18 18
4 5 7 9 7 5 1 1 10 10 11 12 8 10 9 8 5 1 2 4 7 10 12 13 15 16 17 20 20 18 17 17 19 19 19 19 18 18 18 16 16 17 15 14
7 5 1 18 7 12 4 5 11 12 13 12 14 15 14 12 9 6 4 2 3 6 7 9 11 12 12 15 15 14 13 14 15 14 14 14 13 14 13 13 12 12 11 10
4 4 16 20 23 20 16 11 10 13 14 15 14 14 13 12 10 9 8 6 3 3 4 6 8 9 10 11 12 12 12 13 13 13 13 13 13 13 13 13 12 11 10 9
8 17 17 21 22 23 26 18 16 16 17 17 16 15 14 14 13 12 11 9 7 6 4 4 5 5 5 6 7 8 8 9 10 11 12 13 13 14 14 14 13 11 10 10
4 1 5 7 9 10 23 31 28 21 22 21 21 18 16 16 15 15 14 12 11 9 8 7 5 3 2 3 4 5 6 7 8 9 10 11 12 12 12 12 11 11 10 10
6 9 19 29 28 23 24 21 33 30 24 24 23 22 20 19 18 17 17 16 14 11 11 10 7 5 2 2 2 2 3 4 6 6 7 8 8 8 9 8 9 8 9 9
18 22 22 16 15 13 18 17 22 28 28 26 24 23 23 22 21 21 20 16 15 15 13 12 10 7 5 4 3 1 1 3 4 4 4 5 5 5 5 5 6 6 7 8
10 14 20 24 26 23 19 18 20 26 28 28 27 26 26 26 25 22 18 18 18 17 16 15 13 10 8 7 6 4 3 2 2 2 2 2 3 3 4 5 5 6 8 9
25 22 21 24 26 23 22 20 21 26 28 29 30 30 29 27 26 24 22 22 22 19 16 17 15 12 10 8 7 7 5 4 3 3 3 4 5 6 6 6 7 8 9 9
18 17 18 16 11 14 17 19 18 23 26 30 32 31 31 30 29 28 27 25 24 21 20 18 15 14 12 10 9 9 8 7 6 6 6 6 6 7 7 9 10 10 11 11
13 15 11 7 9 11 10 13 21 24 24 25 29 33 34 34 35 32 29 27 26 26 25 21 19 17 15 13 13 12 11 10 10 10 10 10 9 10 10 11 12 12 12 13
18 20 20 14 11 12 13 14 14 16 19 23 26 30 33 36 37 35 33 32 32 31 28 23 20 19 18 17 16 15 15 14 13 12 12 12 12 12 12 12 13 14 14 14
18 20 21 21 20 19 18 15 15 18 18 18 21 25 29 33 36 38 38 39 38 33 25 23 23 22 20 19 18 18 17 16 15 15 15 14 13 13 13 14 14 15 15 15
13 17 20 21 21 20 21 21 21 20 19 21 25 27 27 28 31 35 40 42 39 35 30 28 26 24 23 21 20 19 18 18 17 16 15 15 13 14 15 15 16 15 14 14
14 17 17 18 19 20 19 22 24 25 25 25 25 26 29 31 31 33 36 40 38 37 33 32 30 26 23 22 22 21 20 19 18 17 16 14 15 16 16 16 17 16 15 14
17 18 20 21 22 23 24 24 24 25 26 26 27 28 29 30 32 34 36 34 38 38 35 31 29 25 25 24 23 22 21 20 18 17 15 16 17 17 18 17 15 15 14 13
25 23 23 23 24 26 30 29 27 26 26 27 27 28 28 30 33 33 34 33 32 30 33 31 29 26 26 25 23 22 20 17 18 17 17 17 18 17 17 16 16 13 13 13
23 25 26 28 30 31 31 32 32 29 27 27 27 28 29 28 30 29 31 29 29 30 31 30 30 28 28 26 24 21 19 19 17 18 18 16 17 17 16 15 13 12 12 12
25 26 26 25 25 26 26 27 30 31 31 32 31 30 29 29 29 27 28 28 27 30 31 30 30 30 29 25 21 19 19 18 17 19 18 17 16 14 14 13 13 12 12 10
22 21 20 22 23 25 27 28 31 32 31 32 34 31 29 29 28 26 27 27 29 31 30 26 26 26 23 21 20 19 18 16 19 19 18 16 15 14 13 13 12 11 11 10
Wind_Direction
266 257 253 262 274 273 229 264 263 312 303 312 343 357 354 0 9 18 20 26 25 29 41 50 48 43 34 40 33 218 220 227 229 224 221 219 223 227 232 233 238 239 243 247
284 285 248 265 264 260 263 259 257 275 284 0 355 4 9 11 10 13 16 27 33 43 47 50 51 52 47 46 65 102 164 216 227 236 238 227 234 245 242 240 233 236 236 231
278 321 302 272 262 227 178 202 234 254 304 326 350 9 15 7 19 16 17 23 33 42 46 47 49 52 58 62 72 91 87 72 190 217 229 230 263 258 248 240 235 234 232 229
296 314 263 90 167 234 229 237 214 250 266 280 311 84 37 18 27 27 27 32 34 37 41 45 50 55 57 65 69 74 77 77 78 103 196 224 198 165 188 200 185 145 147 155
279 294 296 225 181 186 205 275 223 219 231 210 174 159 26 17 38 44 41 41 41 43 44 48 51 51 59 64 67 69 69 71 77 89 100 114 136 119 118 121 119 114 113 121
173 271 272 45 137 149 159 261 190 192 206 209 189 224 154 180 66 58 52 50 44 44 46 48 49 51 55 56 60 60 63 65 68 72 76 82 89 92 94 99 100 101 101 99
232 258 276 225 145 155 240 44 176 190 194 186 205 289 155 168 114 64 56 50 40 36 37 41 45 48 53 56 57 57 59 66 71 72 75 79 85 88 88 89 90 89 89 90
190 217 265 146 125 205 79 152 182 191 194 196 201 183 182 188 188 195 50 37 32 32 30 30 36 39 42 50 49 48 52 61 67 72 77 82 82 83 83 85 86 86 84 84
219 231 87 191 231 216 213 181 194 199 201 194 189 195 198 198 201 212 223 241 16 22 20 30 40 42 45 53 53 52 54 61 66 67 69 69 73 77 79 79 78 75 70 67
316 236 242 239 237 239 231 224 215 214 209 204 204 206 210 212 216 223 228 237 256 306 350 11 28 37 42 47 51 53 58 65 69 72 74 75 76 79 78 78 72 69 63 55
257 282 280 259 247 243 237 233 234 224 218 218 214 220 219 222 226 231 234 239 247 264 290 330 354 22 40 50 56 54 52 57 64 72 77 78 78 78 76 76 72 69 64 53
234 250 250 283 336 330 243 242 240 232 225 223 223 224 225 228 231 235 237 240 247 258 269 280 292 328 22 57 65 68 60 62 69 74 76 75 74 72 69 65 61 57 53 44
276 297 292 288 287 290 286 276 237 234 237 232 230 228 231 234 235 238 238 240 244 252 258 265 269 281 308 353 42 63 66 67 77 80 80 72 66 65 64 60 52 42 39 32
281 286 284 287 279 258 282 298 238 236 237 236 237 238 238 240 241 240 242 247 246 248 255 258 262 268 278 273 260 256 48 58 68 84 84 75 75 74 64 52 43 30 21 14
291 307 282 283 278 264 279 279 242 234 234 235 235 238 239 241 244 247 250 247 248 251 254 255 257 261 269 273 269 275 296 323 348 10 14 18 29 32 26 15 8 0 355 350
300 302 295 293 283 270 261 261 250 239 238 239 240 242 245 247 249 249 247 245 247 255 258 254 256 256 264 267 256 255 262 281 294 290 297 316 329 336 341 337 334 334 326 319
315 325 316 309 317 303 269 258 265 259 255 250 248 250 249 249 249 248 248 250 254 254 255 259 261 260 262 259 255 255 262 269 274 269 270 282 290 292 302 308 309 308 305 305
356 350 345 335 298 316 311 282 270 270 272 273 265 259 256 252 252 254 256 256 255 254 255 255 250 252 255 256 255 254 255 258 256 252 258 267 274 279 289 293 295 296 296 299
35 34 34 25 359 335 310 296 295 292 282 275 274 268 262 258 256 257 257 253 252 253 255 250 251 251 254 255 251 249 248 247 247 249 255 262 267 274 280 285 287 290 292 293
38 29 23 20 16 8 358 345 315 291 287 287 280 273 267 262 260 258 256 253 255 259 258 252 246 247 250 248 247 243 240 241 241 244 249 256 264 272 279 281 281 281 284 289
354 347 343 342 341 341 340 337 331 324 314 293 279 276 276 274 268 262 256 252 254 255 251 250 249 249 247 243 240 235 235 236 238 243 250 258 265 274 279 279 277 277 280 286
320 310 310 318 321 318 317 314 316 316 313 308 301 290 282 278 276 271 262 258 260 258 251 248 248 246 244 239 237 233 232 232 236 242 252 263 269 273 275 274 273 272 272 275
324 314 305 300 299 303 305 309 309 305 305 304 304 299 291 286 282 277 272 266 257 253 249 246 246 242 241 239 234 233 233 236 241 250 257 258 261 265 268 268 268 266 260 264
316 313 310 311 306 303 305 313 309 305 297 296 300 301 301 297 290 283 280 276 268 258 251 247 242 241 240 237 232 230 234 239 246 251 253 255 256 261 261 263 265 257 257 261
313 311 311 311 309 310 312 315 312 311 305 295 290 290 292 295 292 291 283 277 265 252 245 242 239 235 234 230 227 229 232 241 249 251 252 252 255 257 259 259 253 251 254 257
305 307 309 311 315 318 317 314 309 307 306 303 299 298 291 289 290 286 279 270 256 247 246 237 232 229 227 224 224 227 236 238 244 249 251 253 254 253 251 247 244 246 250 252
296 299 302 309 320 324 322 317 312 312 312 312 308 305 294 285 287 283 275 264 250 241 234 230 229 225 223 221 224 230 232 241 249 248 249 249 246 244 245 241 240 238 242 258
Height
1506 1506 1507 1505 1499 1498 1504 1497 1498 1486 1489 1486 1480 1477 1472 1465 1455 1449 1443 1436 1430 1424 1419 1413 1408 1403 1397 1389 1378 1380 1388 1392 1396 1399 1400 1403 1408 1411 1414 1417 1419 1423 1427 1430
1505 1498 1501 1502 1493 1492 1493 1494 1491 1486 1480 1482 1478 1477 1473 1469 1463 1457 1451 1445 1438 1431 1426 1421 1415 1409 1402 1394 1387 1387 1391 1394 1395 1395 1397 1401 1404 1408 1408 1411 1413 1415 1420 1424
1499 1500 1498 1491 1478 1480 1484 1486 1484 1481 1476 1479 1477 1476 1475 1470 1467 1463 1458 1453 1446 1440 1435 1430 1424 1419 1410 1403 1399 1396 1395 1394 1391 1390 1392 1396 1398 1402 1404 1408 1409 1412 1414 1417
1500 1496 1489 1477 1482 1480 1480 1478 1479 1477 1475 1479 1478 1478 1477 1474 1470 1466 1462 1457 1453 1448 1443 1438 1434 1429 1423 1416 1409 1405 1404 1400 1394 1389 1388 1392 1404 1401 1404 1406 1410 1409 1408 1415
1504 1497 1479 1470 1478 1479 1479 1469 1470 1473 1474 1476 1477 1478 1476 1474 1472 1469 1466 1462 1458 1453 1449 1445 1439 1435 1430 1426 1421 1417 1414 1412 1407 1403 1400 1402 1407 1404 1405 1408 1411 1412 1414 1417
1514 1505 1484 1468 1475 1478 1479 1469 1466 1470 1472 1473 1475 1470 1472 1473 1472 1470 1468 1465 1462 1458 1455 1450 1446 1441 1436 1431 1426 1423 1421 1419 1417 1414 1411 1410 1411 1412 1412 1413 1415 1417 1419 1421
1501 1497 1475 1468 1474 1477 1475 1465 1466 1468 1470 1472 1473 1471 1472 1472 1472 1471 1469 1467 1464 1461 1458 1455 1451 1447 1443 1438 1433 1431 1430 1427 1424 1422 1420 1420 1420 1421 1421 1421 1422 1423 1424 1426
1500 1496 1483 1469 1474 1472 1462 1464 1465 1467 1467 1469 1470 1470 1470 1471 1471 1470 1469 1468 1466 1463 1461 1458 1454 1451 1447 1442 1440 1438 1435 1433 1430 1429 1428 1427 1427 1426 1426 1427 1427 1427 1428 1428
1482 1465 1462 1463 1461 1461 1461 1461 1463 1464 1465 1466 1466 1467 1467 1468 1468 1468 1468 1468 1466 1464 1463 1460 1457 1455 1452 1448 1445 1443 1441 1438 1435 1434 1432 1432 1431 1430 1430 1430 1430 1430 1431 1432
1480 1456 1459 1459 1458 1458 1459 1460 1460 1461 1462 1463 1464 1465 1466 1466 1467 1467 1467 1467 1466 1465 1463 1461 1459 1457 1454 1451 1448 1447 1445 1442 1440 1438 1437 1436 1435 1434 1434 1433 1433 1434 1434 1435
1471 1459 1457 1453 1452 1453 1454 1455 1456 1457 1457 1458 1460 1460 1462 1462 1463 1464 1465 1465 1464 1463 1462 1461 1459 1457 1455 1453 1451 1449 1447 1445 1443 1441 1440 1439 1438 1437 1437 1436 1436 1435 1435 1436
1454 1456 1456 1451 1450 1449 1449 1449 1451 1453 1453 1454 1455 1456 1457 1458 1459 1459 1460 1460 1460 1459 1459 1458 1457 1456 1454 1453 1451 1450 1448 1447 1445 1443 1442 1441 1439 1438 1438 1437 1437 1436 1436 1435
1456 1455 1453 1449 1447 1447 1444 1443 1445 1448 1449 1450 1451 1453 1454 1454 1454 1455 1455 1455 1455 1455 1455 1455 1454 1452 1451 1450 1449 1448 1447 1446 1445 1444 1443 1442 1441 1440 1438 1438 1437 1437 1436 1435
1454 1452 1446 1444 1441 1440 1439 1438 1438 1442 1445 1447 1449 1449 1450 1451 1451 1451 1451 1452 1452 1451 1451 1450 1449 1448 1448 1447 1447 1445 1444 1443 1442 1442 1442 1441 1440 1440 1440 1438 1437 1436 1435 1434
1447 1445 1442 1439 1438 1436 1436 1435 1434 1436 1439 1441 1443 1444 1445 1445 1445 1445 1447 1447 1447 1446 1446 1445 1444 1444 1443 1442 1442 1441 1441 1440 1440 1440 1440 1440 1439 1438 1436 1436 1436 1435 1433 1433
1441 1438 1435 1432 1428 1429 1430 1431 1431 1431 1433 1435 1437 1438 1439 1440 1441 1441 1441 1441 1440 1439 1440 1439 1439 1438 1438 1437 1437 1437 1437 1436 1436 1436 1436 1436 1437 1437 1435 1434 1434 1433 1433 1432
1438 1432 1429 1427 1426 1426 1426 1429 1429 1429 1431 1431 1431 1433 1434 1434 1434 1434 1434 1435 1434 1434 1434 1433 1433 1432 1432 1432 1432 1431 1431 1431 1431 1432 1432 1432 1432 1432 1432 1431 1431 1431 1431 1429
1437 1432 1428 1425 1425 1425 1425 1425 1425 1426 1425 1426 1427 1427 1427 1428 1427 1428 1429 1429 1428 1428 1428 1428 1428 1427 1427 1426 1426 1426 1426 1426 1426 1427 1428 1428 1427 1428 1427 1427 1428 1427 1426 1425
1434 1432 1429 1427 1425 1424 1423 1422 1422 1421 1420 1420 1420 1419 1420 1420 1420 1420 1421 1421 1421 1420 1420 1421 1420 1420 1420 1419 1419 1420 1420 1421 1421 1422 1423 1423 1424 1423 1422 1422 1423 1423 1423 1422
1433 1432 1431 1429 1427 1424 1422 1421 1418 1416 1415 1413 1412 1411 1410 1410 1411 1412 1413 1411 1411 1412 1414 1413 1412 1412 1412 1412 1413 1414 1415 1416 1416 1417 1418 1417 1417 1417 1417 1417 1418 1417 1418 1418
1433 1430 1428 1426 1424 1422 1419 1417 1414 1412 1410 1407 1405 1403 1402 1401 1401 1401 1401 1399 1401 1402 1403 1404 1404 1405 1405 1406 1406 1407 1408 1409 1410 1411 1411 1412 1411 1411 1412 1412 1412 1411 1411 1412
1430 1428 1425 1423 1420 1417 1414 1411 1409 1406 1403 1401 1398 1396 1394 1393 1392 1391 1391 1391 1395 1396 1397 1398 1398 1398 1398 1399 1399 1400 1400 1401 1402 1404 1404 1404 1404 1405 1406 1406 1406 1406 1404 1404
1421 1420 1417 1415 1413 1410 1408 1405 1403 1399 1396 1393 1390 1388 1386 1384 1383 1380 1378 1381 1383 1384 1387 1389 1390 1391 1392 1391 1392 1393 1394 1395 1395 1396 1396 1397 1398 1399 1400 1400 1400 1399 1400 1399
1412 1411 1409 1407 1405 1402 1399 1397 1394 1391 1388 1385 1383 1381 1378 1375 1373 1372 1371 1371 1372 1375 1376 1379 1381 1383 1384 1385 1385 1386 1388 1389 1391 1391 1392 1392 1392 1393 1393 1394 1394 1394 1395 1395
1406 1404 1402 1399 1396 1392 1389 1386 1384 1382 1379 1376 1374 1372 1370 1367 1364 1363 1361 1361 1362 1363 1364 1368 1371 1372 1372 1374 1377 1379 1382 1384 1386 1389 1388 1387 1387 1387 1387 1388 1388 1389 1390 1390
1397 1396 1394 1391 1388 1385 1382 1379 1375 1372 1369 1365 1363 1362 1360 1358 1355 1353 1351 1351 1352 1354 1357 1358 1360 1363 1365 1369 1371 1374 1377 1379 1381 1383 1383 1382 1382 1382 1382 1383 1383 1384 1386 1386
1388 1387 1385 1383 1381 1376 1373 1369 1366 1363 1360 1355 1351 1350 1348 1347 1345 1345 1344 1343 1344 1346 1349 1353 1357 1359 1362 1364 1367 1369 1371 1373 1375 1377 1377 1376 1376 1377 1378 1378 1378 1379 1381 1382